This is the latest recevied weather packets stored in our database for station/object ED5YAL-15. If no packets are shown the sender has not sent any weather packets the latest 10 day(s).
| Time | Temp. | Humidity | Pressure | Rain* | Wind** | Luminosity | Snow |
|---|---|---|---|---|---|---|---|
| 1777968120 | 23.33° C | 52% | 1016.1 hPa | - | - | - | - |
| 1777967215 | 22.22° C | 53% | 1016.1 hPa | - | - | - | - |
| 1777966314 | 17.78° C | 54% | 1016.2 hPa | - | - | - | - |
| 1777965414 | 16.11° C | 54% | 1016.2 hPa | - | - | - | - |
| 1777964514 | 15.56° C | 54% | 1016.1 hPa | - | - | - | - |
| 1777963612 | 15.56° C | 54% | 1016.2 hPa | - | - | - | - |
| 1777962711 | 14.44° C | 54% | 1016.1 hPa | - | - | - | - |
| 1777961810 | 13.89° C | 54% | 1016.1 hPa | - | - | - | - |
| 1777960909 | 12.78° C | 55% | 1016 hPa | - | - | - | - |
| 1777960009 | 11.67° C | 55% | 1016.1 hPa | - | - | - | - |
| 1777959108 | 11.67° C | 55% | 1015.9 hPa | - | - | - | - |
| 1777958207 | 12.22° C | 55% | 1015.9 hPa | - | - | - | - |
| 1777957308 | 11.67° C | 55% | 1015.7 hPa | - | - | - | - |
| 1777956403 | 11.67° C | 55% | 1015.7 hPa | - | - | - | - |
| 1777955502 | 11.67° C | 56% | 1015.8 hPa | - | - | - | - |
| 1777954601 | 11.67° C | 56% | 1015.9 hPa | - | - | - | - |
| 1777953700 | 11.67° C | 56% | 1015.9 hPa | - | - | - | - |
| 1777952802 | 11.11° C | 56% | 1015.9 hPa | - | - | - | - |
| 1777951896 | 11.67° C | 56% | 1016 hPa | - | - | - | - |
| 1777950995 | 11.67° C | 56% | 1016 hPa | - | - | - | - |
| 1777950095 | 11.67° C | 56% | 1016.2 hPa | - | - | - | - |
| 1777949194 | 11.67° C | 56% | 1016.2 hPa | - | - | - | - |
| 1777948293 | 11.11° C | 56% | 1016.2 hPa | - | - | - | - |
| 1777947972 | 13.89° C | 56% | 1016 hPa | - | - | - | - |
| 1777947392 | 13.89° C | 56% | 1016 hPa | - | - | - | - |
* Rain since midnight (hover to see other rain measurements)
** Current wind speed in m/s (hover to see current wind gust speed)